Flag for Kazakhstan Weather past 2 weeks in Almaty, Kazakhstan

Now
90 °F

Passing clouds.


Feels Like: 86 °F
Forecast: 63 / 92 °F
Wind: 6 mph from North

Location: Almaty Airport

Current Time: Jul 25, 2014 at 5:28:56 PM

Latest Report: Jul 25, 2014 at 5:00 PM


Visibility: N/A

Pressure: 29.80 "Hg

Humidity: 11%

Dew point: 28 °F

Location of AlmatyLocation

Historic Weather in Almaty — Graph

°F

Almaty temperature yesterday

Maximum temperature yesterday: 86 °F (at 3:30 PM)
Minimum temperature yesterday: 64 °F (at 11:00 AM)
Average temperature yesterday: 76 °F

Past Weeks' High & Low Weather Summary

 TemperatureHumidityPressure
High99 °F (Jul 11, 1:00 PM)83% (Jul 14, 4:30 AM)29.95 "Hg (Jul 14, 4:30 AM)
Low55 °F (Jul 25, 5:00 AM)9% (Jul 15, 3:30 PM)29.59 "Hg (Jul 20, 11:30 AM)
Average78 °F31%29.77 "Hg
* Reported Jul 10 4:00 PM — Jul 25 4:30 PM, Almaty, Weather by CustomWeather, © 2014

Note: Actual official high and low records may vary slightly from our data, if they occured in-between our weather recording intervals... More about our weather records

Advertising

Almaty weather history for previous 24 hours

 ConditionsComfort  
Time TempWeatherWind HumidityBarometerVisibility
4:30 PM
Jul 25
90 °FPassing clouds.6 mph11%29.80 "HgN/A
4:00 PM90 °FPassing clouds.8 mph11%29.80 "HgN/A
3:30 PM90 °FPassing clouds.3 mph11%29.80 "HgN/A
3:00 PM90 °FPassing clouds.6 mph12%29.80 "HgN/A
2:30 PM88 °FPassing clouds.6 mph12%29.83 "HgN/A
2:00 PM88 °FPassing clouds.6 mph12%29.83 "HgN/A
1:30 PM88 °FPassing clouds.6 mph13%29.83 "HgN/A
1:00 PM86 °FClear.6 mph11%29.83 "HgN/A
12:30 PM84 °FClear.6 mph14%29.86 "HgN/A
12:00 PM84 °FPassing clouds.6 mph16%29.86 "HgN/A
11:30 AM82 °FPassing clouds.6 mph16%29.86 "HgN/A
11:00 AM82 °FPassing clouds.3 mph16%29.86 "HgN/A
10:30 AM81 °FPassing clouds.3 mph16%29.86 "HgN/A
10:00 AM79 °FPassing clouds.3 mph23%29.86 "HgN/A
9:30 AM77 °FPassing clouds.3 mph22%29.86 "HgN/A
9:00 AM77 °FPassing clouds.3 mph21%29.86 "HgN/A
8:30 AM73 °FPassing clouds.1 mph29%29.86 "HgN/A
8:00 AM73 °FPassing clouds.1 mph29%29.86 "HgN/A
7:30 AM68 °FPassing clouds.1 mph40%29.86 "HgN/A
7:00 AM63 °FPassing clouds.1 mph45%29.86 "HgN/A
6:30 AM57 °FPassing clouds.3 mph55%29.86 "HgN/A
6:00 AM55 °FPassing clouds.3 mph59%29.86 "HgN/A
5:30 AM57 °FPassing clouds.3 mph55%29.86 "HgN/A
5:00 AM55 °FPassing clouds.1 mph59%29.86 "HgN/A
4:30 AM57 °FPassing clouds.3 mph55%29.83 "HgN/A
4:00 AM57 °FPassing clouds.1 mph55%29.83 "HgN/A
3:30 AM57 °FPassing clouds.1 mph55%29.83 "HgN/A
3:00 AM59 °FPassing clouds.3 mph51%29.83 "HgN/A
2:30 AM61 °FPassing clouds.3 mph48%29.86 "HgN/A
2:00 AM63 °FPassing clouds.3 mph42%29.86 "HgN/A
1:30 AM64 °FPassing clouds.6 mph40%29.86 "HgN/A
1:00 AM63 °FPassing clouds.3 mph42%29.86 "HgN/A
12:30 AM66 °FPassing clouds.6 mph37%29.89 "HgN/A
12:00 AM66 °FPassing clouds.6 mph40%29.89 "HgN/A
11:30 PM
Jul 24
68 °FPassing clouds.6 mph38%29.89 "HgN/A
11:00 PM72 °FPassing clouds.6 mph33%29.89 "HgN/A
10:30 PM72 °FPassing clouds.6 mph33%29.89 "HgN/A
10:00 PM68 °FPassing clouds.8 mph40%29.89 "HgN/A
9:30 PM73 °FPassing clouds.6 mph29%29.86 "HgN/A
9:00 PM73 °FPassing clouds.3 mph33%29.86 "HgN/A
8:30 PM75 °FPassing clouds.6 mph34%29.86 "HgN/A
8:00 PM81 °FPassing clouds.3 mph24%29.86 "HgN/A
7:30 PM84 °FPartly cloudy.6 mph20%29.83 "HgN/A
7:00 PM84 °FBroken clouds.6 mph18%29.83 "HgN/A
6:30 PM86 °FPartly sunny.6 mph15%29.83 "HgN/A
6:00 PM86 °FPartly sunny.8 mph17%29.83 "HgN/A
5:30 PM86 °FScattered clouds.3 mph14%29.86 "HgN/A
5:00 PM86 °FScattered clouds.6 mph15%29.86 "HgN/A
Weather by CustomWeather, © 2014

See weather overviewHow to use our weather pages